contact:dominique.lefevre@mio.osupytheas.fr, maurice.libes@osupytheas.fr, didier.mallarino@osupytheas.fr
Project:EMSO http://www.emso-fr.org/EMSO-France
Depth: 2436.0 m
Title:EMSO Ligure Ouest : Data MII capteur CSTAR
DateTime,Latitude,Longitude,Instrument_Serial,Reference_Counts,Signal_Counts,Corrected_Signal_raw_counts,Calculated_Beam_c_inverse_meters,Internal_thermistor_counts
DateTime,Latitude,Longitude,Instrument_Serial,Reference_Counts,Signal_Counts,Corrected_Signal_raw_counts,Calculated_Beam_c_inverse_meters,Internal_thermistor_counts
2019-08-26T00:02:05,42.805,6.029,CST-1368DR,8177,11443,15409,0.053,551
2019-08-26T00:05:06,42.805,6.029,CST-1368DR,8177,11438,15402,0.055,551
2019-08-26T00:08:08,42.805,6.029,CST-1368DR,8177,11441,15406,0.054,551
2019-08-26T00:11:09,42.805,6.029,CST-1368DR,8177,11439,15403,0.055,551
2019-08-26T00:14:11,42.805,6.029,CST-1368DR,8177,11443,15408,0.054,551
2019-08-26T00:17:13,42.805,6.029,CST-1368DR,8177,11439,15403,0.055,551
2019-08-26T00:20:14,42.805,6.029,CST-1368DR,8177,11430,15390,0.058,550
2019-08-26T00:23:16,42.805,6.029,CST-1368DR,8177,11433,15395,0.057,551
2019-08-26T00:26:18,42.805,6.029,CST-1368DR,8177,11429,15390,0.058,551
2019-08-26T00:29:19,42.805,6.029,CST-1368DR,8177,11430,15391,0.058,551
2019-08-26T00:32:21,42.805,6.029,CST-1368DR,8177,11437,15400,0.056,551
2019-08-26T00:35:23,42.805,6.029,CST-1368DR,8177,11439,15403,0.055,551
2019-08-26T00:38:24,42.805,6.029,CST-1368DR,8177,11440,15404,0.055,551
2019-08-26T00:41:26,42.805,6.029,CST-1368DR,8177,11440,15404,0.055,551
2019-08-26T00:44:27,42.805,6.029,CST-1368DR,8177,11431,15392,0.058,551
2019-08-26T00:47:29,42.805,6.029,CST-1368DR,8177,11441,15406,0.054,551
2019-08-26T00:50:31,42.805,6.029,CST-1368DR,8177,11440,15404,0.055,551
2019-08-26T00:53:32,42.805,6.029,CST-1368DR,8177,11430,15390,0.058,551
2019-08-26T00:56:34,42.805,6.029,CST-1368DR,8177,11436,15398,0.056,551
2019-08-26T00:59:36,42.805,6.029,CST-1368DR,8177,11441,15405,0.054,551
2019-08-26T01:02:37,42.805,6.029,CST-1368DR,8177,11436,15398,0.056,551
2019-08-26T01:05:39,42.805,6.029,CST-1368DR,8177,11441,15406,0.054,551
2019-08-26T01:08:40,42.805,6.029,CST-1368DR,8177,11440,15404,0.055,551
2019-08-26T01:11:42,42.805,6.029,CST-1368DR,8177,11436,15399,0.056,551
2019-08-26T01:14:44,42.805,6.029,CST-1368DR,8177,11440,15404,0.055,551
2019-08-26T01:17:45,42.805,6.029,CST-1368DR,8177,11438,15402,0.055,551
2019-08-26T01:20:47,42.805,6.029,CST-1368DR,8177,11435,15398,0.056,551
2019-08-26T01:23:49,42.805,6.029,CST-1368DR,8177,11439,15403,0.055,551
2019-08-26T01:26:50,42.805,6.029,CST-1368DR,8177,11434,15396,0.057,551
2019-08-26T01:29:52,42.805,6.029,CST-1368DR,8177,11435,15397,0.056,551
2019-08-26T01:32:54,42.805,6.029,CST-1368DR,8177,11437,15400,0.056,551
2019-08-26T01:35:55,42.805,6.029,CST-1368DR,8177,11440,15404,0.055,551
2019-08-26T01:38:57,42.805,6.029,CST-1368DR,8177,11440,15405,0.054,551
2019-08-26T01:41:59,42.805,6.029,CST-1368DR,8177,11440,15404,0.055,550
2019-08-26T01:45:00,42.805,6.029,CST-1368DR,8177,11441,15406,0.054,551
2019-08-26T01:48:02,42.805,6.029,CST-1368DR,8177,11435,15398,0.056,551
2019-08-26T01:51:03,42.805,6.029,CST-1368DR,8177,11444,15410,0.053,551
2019-08-26T01:54:05,42.805,6.029,CST-1368DR,8177,11442,15407,0.054,551
2019-08-26T01:57:07,42.805,6.029,CST-1368DR,8177,11439,15402,0.055,551
2019-08-26T02:00:09,42.805,6.029,CST-1368DR,8177,11443,15408,0.054,551
2019-08-26T02:03:10,42.805,6.029,CST-1368DR,8177,11440,15404,0.055,551
2019-08-26T02:06:12,42.805,6.029,CST-1368DR,8177,11443,15408,0.054,551
2019-08-26T02:09:13,42.805,6.029,CST-1368DR,8177,11442,15407,0.054,551
2019-08-26T02:12:15,42.805,6.029,CST-1368DR,8177,11444,15409,0.053,551
2019-08-26T02:15:17,42.805,6.029,CST-1368DR,8177,11444,15409,0.053,551
2019-08-26T02:18:19,42.805,6.029,CST-1368DR,8177,11443,15409,0.053,551
2019-08-26T02:21:20,42.805,6.029,CST-1368DR,8177,11443,15409,0.053,551
2019-08-26T02:24:22,42.805,6.029,CST-1368DR,8177,11445,15410,0.053,551
2019-08-26T02:27:24,42.805,6.029,CST-1368DR,8177,11445,15410,0.053,551
2019-08-26T02:30:25,42.805,6.029,CST-1368DR,8177,11434,15396,0.057,551
2019-08-26T02:33:27,42.805,6.029,CST-1368DR,8177,11440,15404,0.055,550
2019-08-26T02:36:28,42.805,6.029,CST-1368DR,8177,11444,15409,0.053,551
2019-08-26T02:39:30,42.805,6.029,CST-1368DR,8177,11441,15406,0.054,550
2019-08-26T02:42:32,42.805,6.029,CST-1368DR,8176,11436,15401,0.055,551
2019-08-26T02:45:33,42.805,6.029,CST-1368DR,8176,11442,15409,0.053,551
2019-08-26T02:48:35,42.805,6.029,CST-1368DR,8176,11443,15410,0.053,551
2019-08-26T02:51:37,42.805,6.029,CST-1368DR,8176,11445,15412,0.053,551
2019-08-26T02:54:38,42.805,6.029,CST-1368DR,8176,11445,15412,0.053,551
2019-08-26T02:57:40,42.805,6.029,CST-1368DR,8176,11421,15381,0.061,551
2019-08-26T03:00:41,42.805,6.029,CST-1368DR,8176,11443,15410,0.053,551
2019-08-26T03:03:43,42.805,6.029,CST-1368DR,8176,11444,15411,0.053,551
2019-08-26T03:06:45,42.805,6.029,CST-1368DR,8176,11445,15412,0.053,551
2019-08-26T03:09:46,42.805,6.029,CST-1368DR,8176,11441,15407,0.054,551
2019-08-26T03:12:48,42.805,6.029,CST-1368DR,8176,11443,15410,0.053,551
2019-08-26T03:15:50,42.805,6.029,CST-1368DR,8176,11442,15409,0.053,551
2019-08-26T03:18:51,42.805,6.029,CST-1368DR,8176,11441,15408,0.054,551
2019-08-26T03:21:53,42.805,6.029,CST-1368DR,8176,11443,15409,0.053,551
2019-08-26T03:24:55,42.805,6.029,CST-1368DR,8176,11444,15411,0.053,551
2019-08-26T03:27:57,42.805,6.029,CST-1368DR,8176,11444,15411,0.053,551
2019-08-26T03:30:59,42.805,6.029,CST-1368DR,8176,11443,15410,0.053,551
2019-08-26T03:34:01,42.805,6.029,CST-1368DR,8176,11445,15412,0.053,551
2019-08-26T03:37:02,42.805,6.029,CST-1368DR,8176,11442,15408,0.054,551
2019-08-26T03:40:04,42.805,6.029,CST-1368DR,8176,11443,15410,0.053,551
2019-08-26T03:43:05,42.805,6.029,CST-1368DR,8176,11443,15410,0.053,551
2019-08-26T03:46:07,42.805,6.029,CST-1368DR,8176,11440,15405,0.054,551
2019-08-26T03:49:09,42.805,6.029,CST-1368DR,8176,11441,15407,0.054,551
2019-08-26T03:52:10,42.805,6.029,CST-1368DR,8176,11439,15404,0.055,551
2019-08-26T03:55:12,42.805,6.029,CST-1368DR,8176,11441,15407,0.054,551
2019-08-26T03:58:14,42.805,6.029,CST-1368DR,8176,11441,15407,0.054,551
2019-08-26T04:01:15,42.805,6.029,CST-1368DR,8176,11442,15409,0.053,550
2019-08-26T04:04:17,42.805,6.029,CST-1368DR,8176,11442,15408,0.054,551
2019-08-26T04:07:19,42.805,6.029,CST-1368DR,8176,11442,15408,0.054,551
2019-08-26T04:10:20,42.805,6.029,CST-1368DR,8176,11442,15408,0.054,551
2019-08-26T04:13:22,42.805,6.029,CST-1368DR,8176,11439,15405,0.054,551
2019-08-26T04:16:24,42.805,6.029,CST-1368DR,8176,11439,15404,0.055,551
2019-08-26T04:19:25,42.805,6.029,CST-1368DR,8176,11437,15402,0.055,551
2019-08-26T04:22:27,42.805,6.029,CST-1368DR,8176,11439,15404,0.055,551
2019-08-26T04:25:28,42.805,6.029,CST-1368DR,8176,11443,15409,0.053,551
2019-08-26T04:28:30,42.805,6.029,CST-1368DR,8176,11443,15410,0.053,551
2019-08-26T04:31:32,42.805,6.029,CST-1368DR,8176,11436,15401,0.055,550
2019-08-26T04:34:33,42.805,6.029,CST-1368DR,8176,11441,15407,0.054,551
2019-08-26T04:37:35,42.805,6.029,CST-1368DR,8176,11441,15408,0.054,551
2019-08-26T04:40:37,42.805,6.029,CST-1368DR,8176,11443,15409,0.053,551
2019-08-26T04:43:38,42.805,6.029,CST-1368DR,8176,11443,15409,0.053,551
2019-08-26T04:46:40,42.805,6.029,CST-1368DR,8176,11443,15410,0.053,550
2019-08-26T04:49:42,42.805,6.029,CST-1368DR,8176,11442,15408,0.054,551
2019-08-26T04:52:43,42.805,6.029,CST-1368DR,8176,11438,15404,0.055,551
2019-08-26T04:55:45,42.805,6.029,CST-1368DR,8176,11443,15409,0.053,550
2019-08-26T04:58:47,42.805,6.029,CST-1368DR,8176,11443,15410,0.053,551
2019-08-26T05:01:48,42.805,6.029,CST-1368DR,8176,11442,15408,0.054,551
2019-08-26T05:04:50,42.805,6.029,CST-1368DR,8176,11442,15409,0.053,550
2019-08-26T05:07:51,42.805,6.029,CST-1368DR,8176,11443,15409,0.053,551
2019-08-26T05:10:53,42.805,6.029,CST-1368DR,8176,11441,15407,0.054,550
2019-08-26T05:13:55,42.805,6.029,CST-1368DR,8176,11443,15409,0.053,551
2019-08-26T05:16:56,42.805,6.029,CST-1368DR,8176,11440,15406,0.054,551
2019-08-26T05:19:58,42.805,6.029,CST-1368DR,8176,11442,15409,0.053,551
2019-08-26T05:23:00,42.805,6.029,CST-1368DR,8176,11441,15408,0.054,551
2019-08-26T05:26:01,42.805,6.029,CST-1368DR,8176,11442,15409,0.053,551
2019-08-26T05:29:03,42.805,6.029,CST-1368DR,8176,11441,15407,0.054,551
2019-08-26T05:32:05,42.805,6.029,CST-1368DR,8176,11438,15403,0.055,551
2019-08-26T05:35:06,42.805,6.029,CST-1368DR,8175,11436,15402,0.055,551
2019-08-26T05:38:08,42.805,6.029,CST-1368DR,8175,11434,15400,0.056,551
2019-08-26T05:41:09,42.805,6.029,CST-1368DR,8175,11438,15404,0.055,551
2019-08-26T05:44:11,42.805,6.029,CST-1368DR,8175,11434,15400,0.056,550
2019-08-26T05:47:13,42.805,6.029,CST-1368DR,8175,11439,15407,0.054,551
2019-08-26T05:50:14,42.805,6.029,CST-1368DR,8175,11440,15407,0.054,551
2019-08-26T05:53:16,42.805,6.029,CST-1368DR,8175,11441,15409,0.053,551
2019-08-26T05:56:18,42.805,6.029,CST-1368DR,8175,11437,15403,0.055,551
2019-08-26T05:59:19,42.805,6.029,CST-1368DR,8175,11440,15408,0.054,551
2019-08-26T06:02:21,42.805,6.029,CST-1368DR,8175,11440,15408,0.054,551
2019-08-26T06:05:23,42.805,6.029,CST-1368DR,8175,11437,15403,0.055,551
2019-08-26T06:08:24,42.805,6.029,CST-1368DR,8175,11438,15405,0.054,551
2019-08-26T06:11:26,42.805,6.029,CST-1368DR,8175,11440,15408,0.054,551
2019-08-26T06:14:28,42.805,6.029,CST-1368DR,8175,11439,15407,0.054,551
2019-08-26T06:17:29,42.805,6.029,CST-1368DR,8175,11440,15408,0.054,551
2019-08-26T06:20:31,42.805,6.029,CST-1368DR,8175,11440,15408,0.054,551
2019-08-26T06:23:32,42.805,6.029,CST-1368DR,8175,11435,15401,0.055,551
2019-08-26T06:26:34,42.805,6.029,CST-1368DR,8175,11438,15405,0.054,551
2019-08-26T06:29:36,42.805,6.029,CST-1368DR,8175,11438,15405,0.054,551
2019-08-26T06:32:37,42.805,6.029,CST-1368DR,8175,11439,15406,0.054,551
2019-08-26T06:35:39,42.805,6.029,CST-1368DR,8175,11438,15405,0.054,551
2019-08-26T06:38:41,42.805,6.029,CST-1368DR,8175,11434,15400,0.056,551
2019-08-26T06:41:42,42.805,6.029,CST-1368DR,8175,11441,15409,0.053,551
2019-08-26T06:44:44,42.805,6.029,CST-1368DR,8175,11438,15405,0.054,551
2019-08-26T06:47:46,42.805,6.029,CST-1368DR,8175,11441,15409,0.053,551
2019-08-26T06:50:47,42.805,6.029,CST-1368DR,8175,11440,15407,0.054,551
2019-08-26T06:53:49,42.805,6.029,CST-1368DR,8175,11439,15406,0.054,551
2019-08-26T06:56:51,42.805,6.029,CST-1368DR,8175,11438,15405,0.054,551
2019-08-26T06:59:52,42.805,6.029,CST-1368DR,8175,11438,15405,0.054,551
2019-08-26T07:02:54,42.805,6.029,CST-1368DR,8175,11437,15404,0.055,551
2019-08-26T07:05:55,42.805,6.029,CST-1368DR,8175,11440,15407,0.054,550
2019-08-26T07:08:57,42.805,6.029,CST-1368DR,8175,11441,15409,0.053,551
2019-08-26T07:11:59,42.805,6.029,CST-1368DR,8175,11440,15407,0.054,550
2019-08-26T07:15:00,42.805,6.029,CST-1368DR,8175,11437,15403,0.055,551
2019-08-26T07:18:02,42.805,6.029,CST-1368DR,8175,11437,15404,0.055,551
2019-08-26T07:21:04,42.805,6.029,CST-1368DR,8175,11440,15407,0.054,551
2019-08-26T07:24:05,42.805,6.029,CST-1368DR,8175,11439,15407,0.054,551
2019-08-26T07:27:07,42.805,6.029,CST-1368DR,8175,11438,15405,0.054,551
2019-08-26T07:30:09,42.805,6.029,CST-1368DR,8175,11440,15408,0.054,551
2019-08-26T07:33:10,42.805,6.029,CST-1368DR,8175,11438,15405,0.054,551
2019-08-26T07:36:12,42.805,6.029,CST-1368DR,8175,11441,15409,0.053,551
2019-08-26T07:39:14,42.805,6.029,CST-1368DR,8174,11371,15316,0.078,551
2019-08-26T07:42:15,42.805,6.029,CST-1368DR,8174,11435,15403,0.055,551
2019-08-26T07:45:17,42.805,6.029,CST-1368DR,8174,11439,15408,0.054,551
2019-08-26T07:48:18,42.805,6.029,CST-1368DR,8174,11435,15402,0.055,551
2019-08-26T07:51:20,42.805,6.029,CST-1368DR,8174,11440,15410,0.053,551
2019-08-26T07:54:22,42.805,6.029,CST-1368DR,8174,11440,15409,0.053,551
2019-08-26T07:57:23,42.805,6.029,CST-1368DR,8174,11440,15410,0.053,551
2019-08-26T08:00:25,42.805,6.029,CST-1368DR,8174,11438,15407,0.054,551
2019-08-26T08:03:27,42.805,6.029,CST-1368DR,8174,11436,15403,0.055,551
2019-08-26T08:06:28,42.805,6.029,CST-1368DR,8174,11440,15409,0.053,551
2019-08-26T08:09:30,42.805,6.029,CST-1368DR,8174,11440,15409,0.053,551
2019-08-26T08:12:32,42.805,6.029,CST-1368DR,8174,11440,15409,0.053,551
2019-08-26T08:15:33,42.805,6.029,CST-1368DR,8174,11436,15403,0.055,551
2019-08-26T08:18:35,42.805,6.029,CST-1368DR,8174,11435,15403,0.055,551
2019-08-26T08:21:36,42.805,6.029,CST-1368DR,8174,11441,15410,0.053,551
2019-08-26T08:24:38,42.805,6.029,CST-1368DR,8174,11440,15409,0.053,551
2019-08-26T08:27:40,42.805,6.029,CST-1368DR,8174,11438,15406,0.054,551
2019-08-26T08:30:41,42.805,6.029,CST-1368DR,8174,11438,15407,0.054,551
2019-08-26T08:33:43,42.805,6.029,CST-1368DR,8174,11440,15409,0.053,551
2019-08-26T08:36:45,42.805,6.029,CST-1368DR,8174,11439,15408,0.054,551
2019-08-26T08:39:46,42.805,6.029,CST-1368DR,8174,11438,15406,0.054,551
2019-08-26T08:42:48,42.805,6.029,CST-1368DR,8174,11437,15405,0.054,550
2019-08-26T08:45:50,42.805,6.029,CST-1368DR,8174,11437,15405,0.054,551
2019-08-26T08:48:51,42.805,6.029,CST-1368DR,8174,11437,15405,0.054,550
2019-08-26T08:51:53,42.805,6.029,CST-1368DR,8174,11439,15407,0.054,551
2019-08-26T08:54:54,42.805,6.029,CST-1368DR,8174,11437,15405,0.054,551
2019-08-26T08:57:57,42.805,6.029,CST-1368DR,8174,11437,15405,0.054,551
2019-08-26T09:00:59,42.805,6.029,CST-1368DR,8174,11438,15407,0.054,551
2019-08-26T09:04:00,42.805,6.029,CST-1368DR,8174,11438,15407,0.054,551
2019-08-26T09:07:02,42.805,6.029,CST-1368DR,8174,11428,15393,0.058,551
2019-08-26T09:10:03,42.805,6.029,CST-1368DR,8174,11438,15407,0.054,551
2019-08-26T09:13:05,42.805,6.029,CST-1368DR,8174,11439,15407,0.054,550
2019-08-26T09:16:07,42.805,6.029,CST-1368DR,8174,11438,15407,0.054,551
2019-08-26T09:19:08,42.805,6.029,CST-1368DR,8174,11438,15406,0.054,551
2019-08-26T09:22:10,42.805,6.029,CST-1368DR,8174,11437,15405,0.054,551
2019-08-26T09:25:12,42.805,6.029,CST-1368DR,8174,11436,15404,0.055,550
2019-08-26T09:28:13,42.805,6.029,CST-1368DR,8174,11434,15402,0.055,551
2019-08-26T09:31:15,42.805,6.029,CST-1368DR,8174,11436,15404,0.055,551
2019-08-26T09:34:17,42.805,6.029,CST-1368DR,8174,11436,15404,0.055,551
2019-08-26T09:37:18,42.805,6.029,CST-1368DR,8174,11437,15405,0.054,551
2019-08-26T09:40:20,42.805,6.029,CST-1368DR,8174,11417,15378,0.061,551
2019-08-26T09:43:21,42.805,6.029,CST-1368DR,8174,11440,15409,0.053,551
2019-08-26T09:46:23,42.805,6.029,CST-1368DR,8173,11439,15409,0.053,551
2019-08-26T09:49:25,42.805,6.029,CST-1368DR,8173,11438,15408,0.054,551
2019-08-26T09:52:26,42.805,6.029,CST-1368DR,8173,11436,15406,0.054,551
2019-08-26T09:55:28,42.805,6.029,CST-1368DR,8173,11438,15409,0.053,551
2019-08-26T09:58:30,42.805,6.029,CST-1368DR,8173,11439,15409,0.053,551
2019-08-26T10:01:31,42.805,6.029,CST-1368DR,8173,11440,15411,0.053,551
2019-08-26T10:04:33,42.805,6.029,CST-1368DR,8173,11439,15409,0.053,551
2019-08-26T10:07:34,42.805,6.029,CST-1368DR,8173,11439,15410,0.053,551
2019-08-26T10:10:36,42.805,6.029,CST-1368DR,8173,11436,15406,0.054,551
2019-08-26T10:13:38,42.805,6.029,CST-1368DR,8173,11438,15408,0.054,551
2019-08-26T10:16:39,42.805,6.029,CST-1368DR,8173,11439,15409,0.053,551
2019-08-26T10:19:41,42.805,6.029,CST-1368DR,8173,11437,15406,0.054,551
2019-08-26T10:22:43,42.805,6.029,CST-1368DR,8173,11432,15400,0.056,551
2019-08-26T10:25:44,42.805,6.029,CST-1368DR,8173,11434,15403,0.055,551
2019-08-26T10:28:46,42.805,6.029,CST-1368DR,8173,11439,15409,0.053,551
2019-08-26T10:31:48,42.805,6.029,CST-1368DR,8173,11435,15404,0.055,551
2019-08-26T10:34:49,42.805,6.029,CST-1368DR,8173,11439,15409,0.053,551
2019-08-26T10:37:51,42.805,6.029,CST-1368DR,8173,11438,15408,0.054,551
2019-08-26T10:40:52,42.805,6.029,CST-1368DR,8173,11411,15371,0.063,551
2019-08-26T10:43:54,42.805,6.029,CST-1368DR,8173,11436,15406,0.054,550
2019-08-26T10:46:56,42.805,6.029,CST-1368DR,8173,11437,15407,0.054,551
2019-08-26T10:49:58,42.805,6.029,CST-1368DR,8173,11434,15403,0.055,551
2019-08-26T10:52:59,42.805,6.029,CST-1368DR,8173,11437,15407,0.054,551
2019-08-26T10:56:01,42.805,6.029,CST-1368DR,8173,11434,15403,0.055,551
2019-08-26T10:59:03,42.805,6.029,CST-1368DR,8173,11436,15406,0.054,550
2019-08-26T11:02:04,42.805,6.029,CST-1368DR,8173,11437,15407,0.054,551
2019-08-26T11:05:06,42.805,6.029,CST-1368DR,8173,11439,15409,0.053,551
2019-08-26T11:08:07,42.805,6.029,CST-1368DR,8173,11438,15408,0.054,551
2019-08-26T11:11:09,42.805,6.029,CST-1368DR,8173,11438,15409,0.053,550
2019-08-26T11:14:11,42.805,6.029,CST-1368DR,8173,11435,15405,0.054,551
2019-08-26T11:17:12,42.805,6.029,CST-1368DR,8173,11434,15403,0.055,551
2019-08-26T11:20:14,42.805,6.029,CST-1368DR,8173,11431,15399,0.056,550
2019-08-26T11:23:16,42.805,6.029,CST-1368DR,8173,11438,15408,0.054,551
2019-08-26T11:26:17,42.805,6.029,CST-1368DR,8173,11438,15408,0.054,551
2019-08-26T11:29:19,42.805,6.029,CST-1368DR,8173,11435,15404,0.055,550
2019-08-26T11:32:20,42.805,6.029,CST-1368DR,8173,11435,15405,0.054,551
2019-08-26T11:35:22,42.805,6.029,CST-1368DR,8173,11438,15408,0.054,551
2019-08-26T11:38:24,42.805,6.029,CST-1368DR,8172,11424,15391,0.058,551
2019-08-26T11:41:25,42.805,6.029,CST-1368DR,8172,11423,15390,0.058,551
2019-08-26T11:44:27,42.805,6.029,CST-1368DR,8172,11436,15407,0.054,551
2019-08-26T11:47:29,42.805,6.029,CST-1368DR,8172,11435,15407,0.054,551
2019-08-26T11:50:30,42.805,6.029,CST-1368DR,8172,11421,15387,0.059,551
2019-08-26T11:53:32,42.805,6.029,CST-1368DR,8172,11435,15406,0.054,551
2019-08-26T11:56:34,42.805,6.029,CST-1368DR,8172,11436,15408,0.054,551
2019-08-26T11:59:35,42.805,6.029,CST-1368DR,8173,11433,15401,0.055,550
2019-08-26T12:02:37,42.805,6.029,CST-1368DR,8172,11432,15402,0.055,551
2019-08-26T12:05:38,42.805,6.029,CST-1368DR,8172,11436,15408,0.054,551
2019-08-26T12:08:40,42.805,6.029,CST-1368DR,8173,11437,15406,0.054,551
2019-08-26T12:11:42,42.805,6.029,CST-1368DR,8173,11434,15403,0.055,551
2019-08-26T12:14:43,42.805,6.029,CST-1368DR,8173,11436,15406,0.054,551
2019-08-26T12:17:45,42.805,6.029,CST-1368DR,8173,11437,15406,0.054,551
2019-08-26T12:20:47,42.805,6.029,CST-1368DR,8172,11437,15408,0.054,551
2019-08-26T12:23:48,42.805,6.029,CST-1368DR,8172,11438,15411,0.053,550
2019-08-26T12:26:50,42.805,6.029,CST-1368DR,8173,11435,15404,0.055,550
2019-08-26T12:29:52,42.805,6.029,CST-1368DR,8172,11436,15408,0.054,551
2019-08-26T12:32:53,42.805,6.029,CST-1368DR,8172,11436,15407,0.054,551
2019-08-26T12:35:55,42.805,6.029,CST-1368DR,8172,11436,15407,0.054,551
2019-08-26T12:38:57,42.805,6.029,CST-1368DR,8172,11436,15408,0.054,551
2019-08-26T12:41:58,42.805,6.029,CST-1368DR,8172,11436,15408,0.054,551
2019-08-26T12:45:00,42.805,6.029,CST-1368DR,8172,11434,15405,0.054,551
2019-08-26T12:48:01,42.805,6.029,CST-1368DR,8172,11430,15400,0.056,550
2019-08-26T12:51:03,42.805,6.029,CST-1368DR,8172,11435,15406,0.054,551
2019-08-26T12:54:05,42.805,6.029,CST-1368DR,8172,11431,15401,0.055,551
2019-08-26T12:57:06,42.805,6.029,CST-1368DR,8172,11434,15404,0.055,551
2019-08-26T13:00:08,42.805,6.029,CST-1368DR,8172,11435,15406,0.054,551
2019-08-26T13:03:10,42.805,6.029,CST-1368DR,8172,11430,15399,0.056,551
2019-08-26T13:06:11,42.805,6.029,CST-1368DR,8172,11435,15406,0.054,551
2019-08-26T13:09:13,42.805,6.029,CST-1368DR,8172,11437,15408,0.054,551
2019-08-26T13:12:14,42.805,6.029,CST-1368DR,8172,11436,15407,0.054,551
2019-08-26T13:15:16,42.805,6.029,CST-1368DR,8172,11435,15406,0.054,550
2019-08-26T13:18:18,42.805,6.029,CST-1368DR,8172,11433,15403,0.055,551
2019-08-26T13:21:19,42.805,6.029,CST-1368DR,8172,11434,15405,0.054,550
2019-08-26T13:24:21,42.805,6.029,CST-1368DR,8172,11435,15407,0.054,551
2019-08-26T13:27:23,42.805,6.029,CST-1368DR,8172,11427,15396,0.057,551
2019-08-26T13:30:24,42.805,6.029,CST-1368DR,8172,11433,15404,0.055,551
2019-08-26T13:33:26,42.805,6.029,CST-1368DR,8172,11435,15406,0.054,551
2019-08-26T13:36:28,42.805,6.029,CST-1368DR,8172,11435,15406,0.054,551
2019-08-26T13:39:29,42.805,6.029,CST-1368DR,8172,11432,15402,0.055,551
2019-08-26T13:42:31,42.805,6.029,CST-1368DR,8172,11437,15408,0.054,551
2019-08-26T13:45:32,42.805,6.029,CST-1368DR,8172,11434,15404,0.055,551
2019-08-26T13:48:34,42.805,6.029,CST-1368DR,8172,11437,15408,0.054,551
2019-08-26T13:51:36,42.805,6.029,CST-1368DR,8172,11437,15409,0.053,551
2019-08-26T13:54:37,42.805,6.029,CST-1368DR,8172,11437,15409,0.053,551
2019-08-26T13:57:39,42.805,6.029,CST-1368DR,8172,11438,15410,0.053,551
2019-08-26T14:00:41,42.805,6.029,CST-1368DR,8172,11437,15409,0.053,551
2019-08-26T14:03:42,42.805,6.029,CST-1368DR,8172,11439,15411,0.053,550
2019-08-26T14:10:06,42.805,6.029,CST-1368DR,8171,11436,15409,0.053,551
2019-08-26T14:13:08,42.805,6.029,CST-1368DR,8171,11436,15409,0.053,551
2019-08-26T14:16:09,42.805,6.029,CST-1368DR,8171,11432,15404,0.055,551
2019-08-26T14:19:11,42.805,6.029,CST-1368DR,8171,11435,15408,0.054,551
2019-08-26T14:22:13,42.805,6.029,CST-1368DR,8171,11435,15408,0.054,551
2019-08-26T14:25:14,42.805,6.029,CST-1368DR,8171,11433,15405,0.054,551
2019-08-26T14:28:16,42.805,6.029,CST-1368DR,8171,11437,15410,0.053,551
2019-08-26T14:31:18,42.805,6.029,CST-1368DR,8171,11435,15408,0.054,551
2019-08-26T14:34:19,42.805,6.029,CST-1368DR,8171,11432,15403,0.055,551
2019-08-26T14:37:21,42.805,6.029,CST-1368DR,8171,11436,15409,0.053,551
2019-08-26T14:40:23,42.805,6.029,CST-1368DR,8171,11435,15408,0.054,551
2019-08-26T14:43:24,42.805,6.029,CST-1368DR,8171,11434,15407,0.054,551
2019-08-26T14:46:26,42.805,6.029,CST-1368DR,8171,11434,15407,0.054,551
2019-08-26T14:49:27,42.805,6.029,CST-1368DR,8171,11434,15406,0.054,551
2019-08-26T14:52:29,42.805,6.029,CST-1368DR,8171,11434,15407,0.054,551
2019-08-26T14:55:31,42.805,6.029,CST-1368DR,8171,11428,15399,0.056,551
2019-08-26T14:58:32,42.805,6.029,CST-1368DR,8171,11434,15406,0.054,551
2019-08-26T15:01:34,42.805,6.029,CST-1368DR,8171,11435,15408,0.054,551
2019-08-26T15:04:36,42.805,6.029,CST-1368DR,8171,11428,15398,0.056,551
2019-08-26T15:07:37,42.805,6.029,CST-1368DR,8171,11432,15404,0.055,551
2019-08-26T15:10:39,42.805,6.029,CST-1368DR,8171,11434,15407,0.054,551
2019-08-26T15:13:41,42.805,6.029,CST-1368DR,8171,11434,15407,0.054,551
2019-08-26T15:16:42,42.805,6.029,CST-1368DR,8171,11434,15406,0.054,551
2019-08-26T15:19:44,42.805,6.029,CST-1368DR,8171,11428,15398,0.056,551
2019-08-26T15:22:46,42.805,6.029,CST-1368DR,8171,11421,15389,0.059,550
2019-08-26T15:25:47,42.805,6.029,CST-1368DR,8171,11431,15402,0.055,550
2019-08-26T15:28:49,42.805,6.029,CST-1368DR,8171,11433,15406,0.054,550
2019-08-26T15:31:51,42.805,6.029,CST-1368DR,8171,11429,15400,0.056,551
2019-08-26T15:34:52,42.805,6.029,CST-1368DR,8171,11432,15404,0.055,550
2019-08-26T15:37:54,42.805,6.029,CST-1368DR,8171,11434,15407,0.054,551
2019-08-26T15:40:56,42.805,6.029,CST-1368DR,8171,11432,15404,0.055,551
2019-08-26T15:43:57,42.805,6.029,CST-1368DR,8171,11434,15407,0.054,550
2019-08-26T15:46:59,42.805,6.029,CST-1368DR,8171,11436,15409,0.053,551
2019-08-26T15:50:00,42.805,6.029,CST-1368DR,8171,11434,15407,0.054,550
2019-08-26T15:53:02,42.805,6.029,CST-1368DR,8171,11434,15407,0.054,551
2019-08-26T15:56:04,42.805,6.029,CST-1368DR,8171,11435,15407,0.054,551
2019-08-26T15:59:05,42.805,6.029,CST-1368DR,8171,11432,15404,0.055,551
2019-08-26T16:02:07,42.805,6.029,CST-1368DR,8171,11429,15400,0.056,551
2019-08-26T16:05:09,42.805,6.029,CST-1368DR,8171,11433,15405,0.054,551
2019-08-26T16:08:10,42.805,6.029,CST-1368DR,8171,11433,15406,0.054,551
2019-08-26T16:11:12,42.805,6.029,CST-1368DR,8171,11434,15406,0.054,551
2019-08-26T16:14:14,42.805,6.029,CST-1368DR,8170,11433,15407,0.054,551
2019-08-26T16:17:15,42.805,6.029,CST-1368DR,8170,11433,15407,0.054,551
2019-08-26T16:20:17,42.805,6.029,CST-1368DR,8170,11432,15406,0.054,551
2019-08-26T16:23:19,42.805,6.029,CST-1368DR,8170,11433,15407,0.054,551
2019-08-26T16:26:20,42.805,6.029,CST-1368DR,8170,11434,15409,0.053,551
2019-08-26T16:29:22,42.805,6.029,CST-1368DR,8170,11428,15400,0.056,550
2019-08-26T16:32:24,42.805,6.029,CST-1368DR,8170,11428,15400,0.056,551
2019-08-26T16:35:25,42.805,6.029,CST-1368DR,8170,11434,15408,0.054,551
2019-08-26T16:38:27,42.805,6.029,CST-1368DR,8170,11431,15404,0.055,550
2019-08-26T16:41:29,42.805,6.029,CST-1368DR,8170,11433,15407,0.054,551